Starlink 31083

operational
NORAD ID: 58670 Int'l Des: 2023-211 Owner: SPXS Country: US Constellation: starlink
LEOCIRCULAR

Starlink 31083について

説明を読み込み中...

リアルタイム位置

3D地球を読み込み中...

次回通過

高度履歴

Altitude vs Time

uPlot chart will show altitude changes over time

軌道要素

1 58670U 23211D 25261.23256667 -.00000547 00000-0 -10313-4 0 9998
2 58670 43.0033 338.8751 0003531 287.3427 72.7038 15.27565820 96093
Epoch: Sep 18, 2025 • Age: 18 hours

現在のステータス

高度 494.2 km
速度 7.62 km/s
衛星直下点 -43.14°S, 111.87°W
打ち上げ日 Dec 29, 2023
運用期間 1.7 years
タイプ internet

技術仕様

分類 Payload
質量 730.00 kg
乾燥質量 700.00 kg
総質量 730.00 kg
長さ 0.30 m
直径 4.10 m
スパン 29.00 m
形状 Box + pan
製造者 SPXS
バスタイプ Starlink V2M
フェーズステータス In Orbit
所有者/国 SPXS/US

大規模コンステレーション

Loading constellations...